Home   Weather   36°04'N, 120°22'E   Past weeks
Flag for China

Past Weather in 36°04'N, 120°22'E, China — Yesterday and Last 2 Weeks

Now
82 °F

Clear.


Feels Like: 85 °F
Forecast: 83 / 78 °F
Wind: 3 mph from South

Location: Qingdao Airport

Current Time: Jul 21, 2019 at 11:49:38 pm

Latest Report: Jul 21, 2019 at 11:00 pm


Visibility: 10 mi

Pressure: 29.65 "Hg

Humidity: 58%

Dew Point: 66 °F

Location of 36°04'N, 120°22'ELocation

Past Weather in 36°04'N, 120°22'E — Graph

°F

36°04'N, 120°22'E Temperature Yesterday

Maximum temperature yesterday: 99 °F (at 3:00 pm)
Minimum temperature yesterday: 77 °F (at 1:00 am)
Average temperature yesterday: 86 °F

High & Low Weather Summary for the Past Weeks

 TemperatureHumidityPressure
High99 °F (Jul 20, 3:00 pm)100% (Jul 8, 5:00 am)29.80 "Hg (Jul 8, 5:00 am)
Low66 °F (Jul 8, 5:00 am)38% (Jul 20, 7:00 pm)29.47 "Hg (Jul 13, 3:00 pm)
Average79 °F73%29.67 "Hg
* Reported Jul 6 10:00 pm — Jul 21 10:00 pm, 36°04'N, 120°22'E. Weather by CustomWeather, © 2019

Note: Actual official high and low records may vary slightly from our data, if they occured in-between our weather recording intervals... More about our weather records

Advertising

36°04'N, 120°22'E Weather History for the Previous 24 Hours

Scroll right to see more
 ConditionsComfort  
Time TempWeatherWind HumidityBarometerVisibility
10:00 pm
Sun, Jul 21
82 °FClear.6 mph55%29.65 "Hg10 mi
9:00 pm82 °FClear.6 mph58%29.65 "Hg10 mi
8:00 pm84 °FClear.6 mph51%29.65 "Hg10 mi
7:00 pm84 °FSunny.10 mph58%29.62 "Hg10 mi
6:00 pm88 °FSunny.10 mph59%29.59 "Hg10 mi
5:00 pm93 °FPassing clouds.10 mph49%29.59 "HgN/A
4:00 pm95 °FSunny.10 mph47%29.59 "Hg10 mi
3:00 pm95 °FPassing clouds.8 mph47%29.59 "HgN/A
2:00 pm95 °FScattered clouds.6 mph47%29.62 "HgN/A
1:00 pm95 °FScattered clouds.6 mph47%29.62 "HgN/A
12:00 pm93 °FPassing clouds.8 mph47%29.62 "HgN/A
11:00 am95 °FPassing clouds.3 mph44%29.62 "HgN/A
10:00 am91 °FPassing clouds.3 mph49%29.65 "HgN/A
9:00 am88 °FPassing clouds.8 mph55%29.65 "HgN/A
8:00 am84 °FSunny.3 mph66%29.65 "Hg10 mi
7:00 am81 °FPassing clouds.3 mph74%29.62 "HgN/A
6:00 am79 °FSunny.1 mph79%29.62 "Hg10 mi
5:00 am77 °FSunny.1 mph83%29.62 "Hg10 mi
4:00 am77 °FPassing clouds.3 mph83%29.59 "HgN/A
3:00 am77 °FClear.3 mph79%29.59 "Hg10 mi
2:00 am79 °FClear.1 mph79%29.59 "Hg10 mi
1:00 am79 °FClear.3 mph84%29.59 "Hg10 mi
12:00 am81 °FClear.3 mph74%29.59 "Hg10 mi
11:00 pm
Sat, Jul 20
81 °FClear.1 mph70%29.59 "Hg10 mi
Weather by CustomWeather, © 2019

See weather overview